Date String (YYYY-MM-DD hh:mm:ss) UTC,Instrument flags,Ambient pressure (hPa),Sample flow (lpm),Bypass flow (lpm),Sample temperature (°C),Ambient temperature (°C),ASC tube jacket temperature (°C),LED temperature (°C),Box temperature (°C),Sample RH (%),Span deviation,Mass concentration (μg/m³),Mass concentration (μg/m³),Mass concentration (μg/m³)
DateTimeUTC,F1_M11,P_M11,Q1_M11,Q2_M11,T1_M11,T2_M11,T3_M11,T4_M11,T5_M11,U1_M11,ZSPAN_M11,X0_M11,X2_M11,X1_M11
2021-11-01 10:00:00,,0828.9,4.99,0.00,24.8,23.9,00.0,33.8,26.6,19.7,0000.0,0011.50,0007.00,0006.56
2021-11-01 10:01:00,,0828.8,5.01,0.00,24.8,23.9,00.0,33.8,26.6,19.7,0000.0,0011.54,0006.99,0006.55
2021-11-01 10:02:00,,0828.8,5.00,0.00,24.8,23.9,00.0,33.8,26.6,19.7,0000.0,0011.63,0007.00,0006.54
2021-11-01 10:03:00,,0828.8,4.99,0.00,24.8,23.9,00.0,33.8,26.6,19.7,0000.0,0011.58,0006.98,0006.51
2021-11-01 10:04:00,,0828.7,5.01,0.00,24.8,23.9,00.0,33.8,26.6,19.7,0000.0,0011.35,0006.88,0006.44
2021-11-01 10:05:00,,0828.8,4.99,0.00,24.8,23.8,00.0,33.8,26.6,19.7,0000.0,0011.51,0006.76,0006.36
2021-11-01 10:06:00,,0828.8,5.01,0.00,24.8,23.8,00.0,33.8,26.6,19.7,0000.0,0010.91,0006.65,0006.27
2021-11-01 10:07:00,,0828.9,5.00,0.00,24.7,23.8,00.0,33.8,26.6,19.6,0000.0,0010.35,0006.53,0006.18
2021-11-01 10:08:00,,0828.9,5.00,0.00,24.7,23.8,00.0,33.8,26.6,19.6,0000.0,0009.56,0006.42,0006.08
2021-11-01 10:09:00,,0828.9,5.00,0.00,24.7,23.8,00.0,33.8,26.6,19.6,0000.0,0009.47,0006.35,0005.99
2021-11-01 10:10:00,,0828.8,4.99,0.00,24.7,23.8,00.0,33.8,26.6,19.6,0000.0,0008.78,0006.28,0005.91
2021-11-01 10:11:00,,0828.9,5.01,0.00,24.7,23.8,00.0,33.8,26.6,19.6,0000.0,0008.68,0006.20,0005.82
2021-11-01 10:12:00,,0828.7,4.99,0.00,24.7,23.8,00.0,33.8,26.6,19.6,0000.0,0008.53,0006.11,0005.75
2021-11-01 10:13:00,,0828.8,5.00,0.00,24.7,23.8,00.0,33.8,26.6,19.6,0000.0,0008.41,0006.05,0005.69
2021-11-01 10:14:00,,0828.7,5.01,0.00,24.7,23.8,00.0,33.8,26.5,19.6,0000.0,0008.38,0006.02,0005.66
2021-11-01 10:15:00,,0828.7,5.01,0.00,24.7,23.8,00.0,33.8,26.5,19.6,0000.0,0008.77,0006.04,0005.67
2021-11-01 10:16:00,,0828.5,5.00,0.00,24.7,23.8,00.0,33.8,26.6,19.6,0000.0,0009.10,0006.05,0005.69
2021-11-01 10:17:00,,0828.9,4.98,0.00,24.7,23.8,00.0,33.8,26.6,19.6,0000.0,0009.38,0006.11,0005.70
2021-11-01 10:18:00,,0828.6,5.00,0.00,24.7,23.8,00.0,33.7,26.5,19.6,0000.0,0009.87,0006.12,0005.71
2021-11-01 10:19:00,,0829.0,5.00,0.00,24.7,23.8,00.0,33.7,26.5,19.6,0000.0,0009.97,0006.14,0005.72
2021-11-01 10:20:00,,0828.8,5.00,0.00,24.7,23.8,00.0,33.7,26.6,19.6,0000.0,0010.12,0006.15,0005.72
2021-11-01 10:21:00,,0829.1,4.99,0.00,24.7,23.8,00.0,33.7,26.6,19.6,0000.0,0010.44,0006.15,0005.73
2021-11-01 10:22:00,,0828.9,4.99,0.00,24.7,23.8,00.0,33.7,26.5,19.6,0000.0,0010.47,0006.14,0005.73
2021-11-01 10:23:00,,0829.1,5.01,0.00,24.7,23.8,00.0,33.7,26.6,19.6,0000.0,0010.55,0006.16,0005.73
2021-11-01 10:24:00,,0828.7,5.01,0.00,24.7,23.8,00.0,33.7,26.6,19.6,0000.0,0010.57,0006.16,0005.73
2021-11-01 10:25:00,,0828.6,4.99,0.00,24.7,23.8,00.0,33.7,26.5,19.7,0000.0,0010.63,0006.16,0005.72
2021-11-01 10:26:00,,0828.8,5.00,0.00,24.7,23.8,00.0,33.7,26.5,19.7,0000.0,0010.35,0006.17,0005.71
2021-11-01 10:27:00,,0828.7,4.98,0.00,24.7,23.8,00.0,33.7,26.5,19.7,0000.0,0009.74,0006.16,0005.70
2021-11-01 10:28:00,,0829.0,5.02,0.00,24.7,23.8,00.0,33.7,26.6,19.7,0000.0,0009.51,0006.13,0005.70
2021-11-01 10:29:00,,0829.1,5.01,0.00,24.7,23.8,00.0,33.7,26.6,19.7,0000.0,0009.23,0006.17,0005.69
2021-11-01 10:30:00,,0828.9,4.99,0.00,24.7,23.8,00.0,33.7,26.5,19.7,0000.0,0009.21,0006.19,0005.70
2021-11-01 10:31:00,,0828.9,5.00,0.00,24.7,23.8,00.0,33.7,26.5,19.7,0000.0,0009.07,0006.18,0005.70
2021-11-01 10:32:00,,0828.9,5.00,0.00,24.6,23.7,00.0,33.7,26.5,19.7,0000.0,0008.69,0006.18,0005.72
2021-11-01 10:33:00,,0828.7,5.00,0.00,24.6,23.7,00.0,33.7,26.5,19.7,0000.0,0008.73,0006.20,0005.73
2021-11-01 10:34:00,,0828.8,5.00,0.00,24.6,23.7,00.0,33.7,26.4,19.8,0000.0,0008.76,0006.23,0005.76
2021-11-01 10:35:00,,0828.5,4.99,0.00,24.6,23.7,00.0,33.7,26.4,19.8,0000.0,0008.80,0006.28,0005.79
2021-11-01 10:36:00,,0828.5,5.00,0.00,24.6,23.7,00.0,33.7,26.4,19.8,0000.0,0008.74,0006.30,0005.81
2021-11-01 10:37:00,,0828.5,5.01,0.00,24.6,23.7,00.0,33.7,26.4,19.8,0000.0,0009.10,0006.32,0005.84
2021-11-01 10:38:00,,0828.5,4.99,0.00,24.6,23.7,00.0,33.6,26.4,19.8,0000.0,0009.14,0006.34,0005.88
2021-11-01 10:39:00,,0828.5,5.00,0.00,24.6,23.7,00.0,33.6,26.4,19.8,0000.0,0009.63,0006.41,0005.92
2021-11-01 10:40:00,,0828.5,5.00,0.00,24.6,23.7,00.0,33.6,26.5,19.8,0000.0,0009.63,0006.42,0005.96
2021-11-01 10:41:00,,0828.5,5.00,0.00,24.6,23.7,00.0,33.6,26.5,19.8,0000.0,0009.62,0006.44,0005.99
2021-11-01 10:42:00,,0828.6,5.00,0.00,24.6,23.8,00.0,33.6,26.5,19.8,0000.0,0009.65,0006.48,0006.02
2021-11-01 10:43:00,,0828.6,5.00,0.00,24.6,23.7,00.0,33.6,26.5,19.8,0000.0,0010.02,0006.53,0006.04
2021-11-01 10:44:00,,0828.5,4.99,0.00,24.6,23.7,00.0,33.6,26.4,19.8,0000.0,0010.13,0006.53,0006.06
2021-11-01 10:45:00,,0828.5,5.00,0.00,24.6,23.7,00.0,33.6,26.4,19.8,0000.0,0010.12,0006.53,0006.06
2021-11-01 10:46:00,,0828.5,5.01,0.00,24.6,23.7,00.0,33.6,26.4,19.8,0000.0,0010.04,0006.53,0006.08
2021-11-01 10:47:00,,0828.5,5.00,0.00,24.6,23.6,00.0,33.6,26.3,19.8,0000.0,0010.03,0006.55,0006.10
2021-11-01 10:48:00,,0828.5,5.00,0.00,24.5,23.6,00.0,33.6,26.3,19.8,0000.0,0009.68,0006.57,0006.12
2021-11-01 10:49:00,,0828.5,5.00,0.00,24.5,23.5,00.0,33.6,26.3,19.9,0000.0,0009.62,0006.57,0006.11
2021-11-01 10:50:00,,0828.5,5.00,0.00,24.5,23.5,00.0,33.6,26.3,19.9,0000.0,0009.14,0006.53,0006.11
2021-11-01 10:51:00,,0828.5,5.00,0.00,24.5,23.5,00.0,33.6,26.3,19.9,0000.0,0009.03,0006.53,0006.13
2021-11-01 10:52:00,,0828.5,4.99,0.00,24.4,23.5,00.0,33.6,26.3,19.9,0000.0,0009.03,0006.55,0006.14
2021-11-01 10:53:00,,0828.9,5.00,0.00,24.4,23.5,00.0,33.6,26.2,19.9,0000.0,0009.22,0006.59,0006.15
2021-11-01 10:54:00,,0828.8,5.00,0.00,24.4,23.5,00.0,33.5,26.2,20.0,0000.0,0008.92,0006.58,0006.17
2021-11-01 10:55:00,,0829.2,4.99,0.00,24.4,23.5,00.0,33.5,26.2,20.0,0000.0,0008.84,0006.60,0006.18
2021-11-01 10:56:00,,0829.1,5.00,0.00,24.4,23.5,00.0,33.5,26.2,20.0,0000.0,0009.26,0006.61,0006.19
2021-11-01 10:57:00,,0829.2,5.01,0.00,24.4,23.5,00.0,33.5,26.2,20.0,0000.0,0009.29,0006.61,0006.18
2021-11-01 10:58:00,,0829.1,5.00,0.00,24.4,23.5,00.0,33.5,26.2,20.0,0000.0,0009.41,0006.61,0006.16
2021-11-01 10:59:00,,0828.7,5.01,0.00,24.3,23.5,00.0,33.5,26.1,20.1,0000.0,0009.34,0006.58,0006.16
